HAWK-A (43765 NORAD) Tracking and Keplerian Element Data

This shows tracking and keplerian element data for the satellite.

Feedback or suggestion? Click here.




ElementValue
Catalog43765
NameHAWK-A
Epoch Orbit38584
Epoch Day354.15076685
Epoch Year2025
RAAN43.7972
Inclination97.4204
Eccentricity0.0036808
Argument of Perigee192.4172
Mean Anonmoly167.6161
Mean Motion15.21698648
Decay Rate6.078E-05
L11 43765U 18099H 25354.15076685 .00006078 00000+0 26676-3 0 9999
L22 43765 97.4204 43.7972 0036808 192.4172 167.6161 15.21698648385842



Live tracking and technical data element details for HAWK-A (NORAD 43765). HAWK-A can be tracked NOW for your location showing map with azimuth and elevation plus other details from your city location.







IsCatalogInMostPopularTable: catalog: 43765, numindb: 549
Update: records affected: 1



GetName: 43765 HAWK-A

Hit Count: updated at: Mon, 18 May 2026 09:34:39 GMT